This demonstration page uses our WeatherBlox Daily Observations layout. Learn more.

Left ArrowRight Arrow

41.12389, -100.76542

Hourly Observations for February 15, 2017

Temp ( °F °C ) Dew Point ( °F °C ) Humidity (%) Winds ( mph kmh ) Pressure ( in mb ) Visibility ( mi km ) Precip ( " mm )
12:53 am 00:53 Clear 22 -5.6 18 -7.8 85 85 NW 5 7 30.22 1024 10 16 0.00 0.00
1:53 am 01:53 Clear 20 -6.7 18 -7.8 92 92 NNW 3 6 30.22 1023 10 16 0.00 0.00
2:53 am 02:53 Clear 19 -7.2 16 -8.9 88 88 NW 7 11 30.22 1023 10 16 0.00 0.00
3:53 am 03:53 Clear 21 -6.1 18 -7.8 88 88 NW 6 9 30.20 1023 10 16 0.00 0.00
4:53 am 04:53 Clear 21 -6.1 18 -7.8 88 88 NW 8 13 30.20 1023 10 16 0.00 0.00
5:53 am 05:53 Clear 20 -6.7 17 -8.3 89 89 NW 5 7 30.20 1023 10 16 0.00 0.00
6:53 am 06:53 Clear 18 -7.8 16 -8.9 92 92 NW 5 7 30.21 1023 10 16 0.00 0.00
7:53 am 07:53 Sunny 18 -7.8 16 -8.9 92 92 NW 3 6 30.22 1023 10 16 0.00 0.00
8:53 am 08:53 Sunny 26 -3.3 23 -5 88 88 NW 3 6 30.20 1023 10 16 0.00 0.00
9:53 am 09:53 Sunny 34 1.1 27 -2.8 76 76 W 7 11 30.19 1022 10 16 0.00 0.00
10:53 am 10:53 Sunny 43 6.1 28 -2.2 56 56 W 8 13 30.15 1021 10 16 0.00 0.00
11:53 am 11:53 Sunny 51 10.6 28 -2.2 41 41 W 9 15 30.12 1020 10 16 0.00 0.00
12:53 pm 12:53 Sunny 57 13.9 26 -3.3 30 30 W 15 24 30.06 1018 10 16 0.00 0.00
1:53 pm 13:53 Sunny 61 16.1 24 -4.4 24 24 WSW 13 20 30.00 1016 10 16 0.00 0.00
2:53 pm 14:53 Sunny 64 17.8 23 -5 21 21 WSW 16 26 29.96 1015 10 16 0.00 0.00
3:53 pm 15:53 Sunny 64 17.8 22 -5.6 20 20 WSW 15 24 29.93 1014 10 16 0.00 0.00
4:53 pm 16:53 Sunny 64 17.8 22 -5.6 20 20 WSW 9 15 29.91 1013 10 16 0.00 0.00
5:53 pm 17:53 Sunny 57 13.9 23 -5 27 27 SW 8 13 29.91 1013 10 16 0.00 0.00
6:53 pm 18:53 Clear 50 10 23 -5 35 35 SSW 8 13 29.92 1013 10 16 0.00 0.00
7:53 pm 19:53 Clear 46 7.8 23 -5 40 40 SSW 6 9 29.91 1013 10 16 0.00 0.00
8:53 pm 20:53 Clear 42 5.6 22 -5.6 45 45 Calm 29.91 1013 10 16 0.00 0.00
9:53 pm 21:53 Clear 36 2.2 23 -5 59 59 NW 8 13 29.91 1013 10 16 0.00 0.00
10:53 pm 22:53 Clear 32 0 22 -5.6 66 66 NW 7 11 29.89 1012 10 16 0.00 0.00
11:53 pm 23:53 Clear 27 -2.8 20 -6.7 75 75 NW 6 9 29.88 1012 10 16 0.00 0.00

Powered by AerisWeather